Content
SEND FEEDBACK

Daily
Averages
Monthly
Summary
United States of America

BIG WATER, UTAH


Home > North America > United States > Utah
Elevation: 4166 feet     Latitude: 37 05N     Longitude: 111 40W

WEATHER
 
SELECT A DAY
Number of Records: 194,893;   Date Range: 1/1/95 - 9/16/14
 
SHARE

PRINT THIS DATA

[ ← Previous Day ]
WEATHER ALMANAC - JANUARY 3, 2013
[ Next Day → ]
[ °C ]   °F
Weather ElementAverageHighLow
Temperature28.1 °F37 °F (2:53 pm)19.9 °F (6:53 am)
Dewpoint6.2 °F14 °F (9:53 am)-0.9 °F (4:53 pm)
Humidity42.5 %68 % (4:53 am)21 % (3:53 pm)
Barometer30.40 in30.47 in (9:53 am)30.33 in (9:41 pm)
Wind Speed2.2 mph8.1 mph (2:53 pm)
Weather ElementAverage
Visibility9 mi
Wind DirectionENE (64.4 °)

Weather ElementTotal
Precipitation---
Heating Degree Days36.6 (Base 65)
Averaged from 25 records on January 3, 2013
WEATHER CONDITIONS BREAKOUT
WIND DIRECTION BREAKOUT
WEATHER BY HOUR - JANUARY 3, 2013
[ °C ]   °F
Local TimeTemperatureDewpointHumidityBarometerVisibilityWind DirectionWind SpeedGust SpeedPrecipitationEventsConditions
1:53 AM24.1 °F12.0 °F60 %30.37 in9.0 miCalmClear
2:53 AM25.0 °F12.0 °F58 %30.37 in10.0 miCalmClear
3:53 AM23.0 °F12.9 °F65 %30.37 in10.0 miCalmClear
4:53 AM21.0 °F12.0 °F68 %30.38 in10.0 miSW (230°)4.6 mphClear
5:53 AM21.0 °F12.0 °F68 %30.40 in10.0 miSW (230°)3.5 mphClear
6:53 AM19.9 °F10.9 °F68 %30.43 in10.0 miCalmClear
7:53 AM21.0 °F10.9 °F65 %30.45 in10.0 miCalmClear
8:53 AM25.0 °F12.0 °F58 %30.46 in7.0 miCalmClear
9:53 AM28.9 °F14.0 °F54 %30.47 in10.0 miCalmClear
10:53 AM30.9 °F12.9 °F47 %30.47 in10.0 miCalmClear
11:53 AM33.1 °F8.1 °F35 %30.44 in10.0 miEast (80°)3.5 mphClear
12:53 PM34.0 °F8.1 °F34 %30.39 in10.0 miENE (70°)4.6 mphClear
1:53 PM35.1 °F7.0 °F31 %30.36 in10.0 miVariable3.5 mphClear
2:53 PM37.0 °F1.0 °F22 %30.35 in10.0 miEast (80°)8.1 mphClear
3:53 PM37.0 °F0.0 °F21 %30.36 in10.0 miEast (100°)8.1 mphClear
4:53 PM36.0 °F-0.9 °F21 %30.37 in10.0 miEast (90°)3.5 mphClear
5:53 PM33.1 °F0.0 °F24 %30.40 in10.0 miCalmClear
6:53 PM30.0 °F0.0 °F28 %30.42 in10.0 miSSE (150°)3.5 mphClear
7:53 PM28.0 °F1.0 °F31 %30.43 in10.0 miSSE (160°)4.6 mphClear
8:53 PM28.9 °F1.0 °F30 %30.40 in10.0 miSouth (170°)4.6 mphClear
9:41 PM26.6 °F1.4 °F34 %30.33 in2.5 miWSW (250°)3.5 mphHaze
9:50 PM26.6 °F1.4 °F34 %30.34 in4.0 miCalmHaze
9:53 PM26.1 °F1.9 °F35 %30.40 in4.0 miCalmHaze
10:53 PM26.1 °F1.9 °F35 %30.41 in9.0 miCalmClear
11:53 PM25.0 °F1.9 °F37 %30.40 in10.0 miCalmClear
Hourly data recorded from KPGA, located miles away from Big Water, Utah







STORIES FROM OUR PARTNERS